QPF
0.01 0.01 0.01 0.01 0.00 0.00 0.00 0.00 0.00 0.00 0.00 0.00 0.00 0.00 0.00 0.00 0.00 0.00 0.00 0.00 0.00 0.00 0.00 0.01 0.01 0.01 0.01 0.01 0.01 0.00 0.00 0.00 0.00 0.01 0.01 0.02 0.03 0.03 0.03 0.02 0.01 0.01 0.01
0.00 0.01 0.01 0.01 0.01 0.00 0.00 0.00 0.00 0.00 0.00 0.00 0.00 0.00 0.00 0.00 0.00 0.00 0.00 0.00 0.01 0.01 0.00 0.01 0.01 0.00 0.00 0.00 0.00 0.00 0.00 0.01 0.01 0.02 0.03 0.03 0.04 0.04 0.03 0.01 0.00 0.00 0.01
0.01 0.01 0.01 0.01 0.01 0.00 0.00 0.00 0.00 0.00 0.00 0.00 0.00 0.00 0.00 0.00 0.00 0.00 0.00 0.00 0.01 0.01 0.00 0.00 0.00 0.00 0.00 0.00 0.00 0.00 0.01 0.01 0.02 0.03 0.03 0.02 0.02 0.02 0.02 0.01 0.01 0.00 0.01
0.01 0.01 0.01 0.01 0.01 0.00 0.00 0.00 0.00 0.00 0.00 0.00 0.00 0.00 0.00 0.00 0.00 0.00 0.00 0.00 0.01 0.01 0.00 0.00 0.00 0.00 0.00 0.00 0.01 0.01 0.01 0.02 0.03 0.03 0.02 0.02 0.02 0.02 0.01 0.01 0.00 0.00 0.00
0.01 0.01 0.01 0.01 0.01 0.01 0.00 0.00 0.00 0.00 0.00 0.00 0.00 0.00 0.00 0.00 0.00 0.00 0.00 0.00 0.01 0.01 0.00 0.00 0.00 0.00 0.00 0.01 0.01 0.02 0.03 0.04 0.05 0.03 0.01 0.01 0.02 0.02 0.01 0.00 0.00 0.00 0.00
0.02 0.01 0.01 0.01 0.01 0.01 0.01 0.01 0.00 0.00 0.00 0.00 0.00 0.00 0.00 0.00 0.00 0.00 0.00 0.00 0.01 0.00 0.00 0.01 0.01 0.01 0.00 0.01 0.01 0.02 0.03 0.04 0.05 0.02 0.01 0.01 0.01 0.02 0.01 0.01 0.00 0.00 0.00
0.01 0.01 0.01 0.01 0.01 0.01 0.01 0.01 0.01 0.01 0.01 0.00 0.00 0.00 0.00 0.00 0.00 0.00 0.00 0.00 0.01 0.00 0.00 0.00 0.01 0.01 0.00 0.01 0.01 0.02 0.02 0.04 0.04 0.03 0.02 0.02 0.02 0.03 0.01 0.01 0.01 0.00 0.01
0.02 0.01 0.01 0.01 0.01 0.01 0.00 0.01 0.01 0.02 0.02 0.01 0.01 0.01 0.01 0.00 0.00 0.00 0.00 0.01 0.01 0.01 0.01 0.01 0.01 0.01 0.01 0.01 0.01 0.02 0.02 0.03 0.03 0.03 0.02 0.02 0.04 0.04 0.02 0.01 0.01 0.01 0.00
0.02 0.02 0.01 0.01 0.01 0.01 0.01 0.01 0.01 0.02 0.04 0.05 0.05 0.04 0.02 0.02 0.01 0.00 0.00 0.01 0.01 0.01 0.01 0.01 0.01 0.01 0.01 0.01 0.01 0.02 0.02 0.03 0.03 0.02 0.02 0.02 0.05 0.07 0.05 0.02 0.01 0.00 0.00
0.03 0.03 0.02 0.01 0.01 0.01 0.01 0.01 0.01 0.02 0.05 0.06 0.08 0.09 0.06 0.03 0.02 0.01 0.01 0.01 0.01 0.01 0.01 0.01 0.01 0.01 0.01 0.01 0.01 0.02 0.03 0.02 0.02 0.03 0.03 0.03 0.05 0.09 0.08 0.05 0.03 0.01 0.01
0.01 0.02 0.03 0.02 0.01 0.01 0.01 0.01 0.01 0.02 0.07 0.13 0.11 0.11 0.09 0.06 0.03 0.02 0.02 0.02 0.02 0.01 0.01 0.01 0.01 0.01 0.01 0.01 0.02 0.02 0.02 0.01 0.01 0.02 0.04 0.03 0.06 0.10 0.11 0.08 0.05 0.03 0.01
0.01 0.01 0.02 0.02 0.02 0.01 0.01 0.01 0.01 0.02 0.03 0.08 0.09 0.12 0.10 0.08 0.05 0.02 0.02 0.03 0.04 0.03 0.02 0.02 0.01 0.01 0.01 0.01 0.01 0.02 0.01 0.01 0.01 0.03 0.04 0.05 0.09 0.13 0.13 0.10 0.08 0.06 0.03
0.03 0.02 0.02 0.02 0.03 0.02 0.02 0.02 0.02 0.02 0.03 0.03 0.05 0.08 0.08 0.06 0.04 0.03 0.02 0.03 0.03 0.04 0.04 0.04 0.03 0.02 0.01 0.01 0.01 0.02 0.02 0.02 0.03 0.04 0.04 0.06 0.10 0.13 0.14 0.14 0.10 0.08 0.07
0.06 0.04 0.03 0.03 0.05 0.05 0.05 0.04 0.04 0.03 0.03 0.03 0.04 0.05 0.06 0.05 0.05 0.04 0.03 0.03 0.04 0.05 0.05 0.04 0.04 0.04 0.03 0.02 0.02 0.03 0.02 0.02 0.03 0.03 0.04 0.06 0.09 0.13 0.16 0.15 0.11 0.10 0.09
0.07 0.07 0.06 0.06 0.07 0.06 0.06 0.07 0.09 0.08 0.04 0.03 0.03 0.04 0.04 0.04 0.06 0.06 0.06 0.06 0.07 0.07 0.05 0.04 0.04 0.05 0.06 0.05 0.04 0.03 0.03 0.04 0.04 0.04 0.04 0.06 0.08 0.10 0.14 0.17 0.16 0.13 0.13
0.09 0.08 0.09 0.10 0.09 0.08 0.07 0.07 0.09 0.10 0.08 0.05 0.03 0.04 0.05 0.05 0.06 0.07 0.08 0.08 0.08 0.09 0.09 0.08 0.08 0.08 0.09 0.07 0.07 0.06 0.05 0.05 0.05 0.04 0.05 0.06 0.07 0.09 0.12 0.16 0.17 0.16 0.14
0.09 0.09 0.11 0.12 0.10 0.08 0.07 0.07 0.09 0.11 0.12 0.09 0.07 0.07 0.07 0.07 0.08 0.09 0.10 0.09 0.08 0.09 0.11 0.10 0.10 0.10 0.09 0.08 0.07 0.06 0.05 0.06 0.06 0.05 0.05 0.05 0.06 0.08 0.10 0.13 0.15 0.15 0.14
0.06 0.06 0.08 0.08 0.07 0.07 0.05 0.06 0.09 0.10 0.10 0.11 0.10 0.09 0.10 0.09 0.07 0.09 0.10 0.10 0.08 0.07 0.09 0.11 0.12 0.12 0.11 0.09 0.08 0.06 0.04 0.05 0.07 0.06 0.06 0.07 0.07 0.06 0.08 0.10 0.12 0.13 0.15
0.07 0.05 0.06 0.06 0.07 0.08 0.07 0.06 0.07 0.10 0.09 0.11 0.11 0.11 0.11 0.09 0.09 0.10 0.11 0.12 0.09 0.08 0.08 0.09 0.11 0.12 0.12 0.09 0.06 0.05 0.04 0.04 0.05 0.07 0.07 0.06 0.05 0.04 0.05 0.06 0.10 0.11 0.13
0.09 0.07 0.05 0.05 0.07 0.08 0.08 0.06 0.06 0.07 0.08 0.12 0.14 0.12 0.13 0.15 0.14 0.12 0.11 0.11 0.10 0.09 0.09 0.08 0.09 0.09 0.08 0.08 0.08 0.07 0.06 0.05 0.06 0.07 0.06 0.05 0.04 0.05 0.06 0.07 0.07 0.07 0.10
0.09 0.09 0.06 0.06 0.06 0.05 0.06 0.05 0.05 0.06 0.06 0.08 0.11 0.13 0.15 0.16 0.15 0.14 0.11 0.10 0.11 0.10 0.09 0.08 0.07 0.07 0.06 0.07 0.07 0.06 0.06 0.06 0.06 0.05 0.05 0.07 0.06 0.05 0.05 0.05 0.07 0.07 0.07
0.09 0.09 0.08 0.06 0.06 0.06 0.05 0.04 0.03 0.03 0.03 0.04 0.06 0.08 0.10 0.10 0.10 0.09 0.11 0.10 0.10 0.10 0.10 0.09 0.09 0.08 0.08 0.07 0.06 0.06 0.05 0.04 0.04 0.03 0.04 0.04 0.05 0.05 0.04 0.05 0.06 0.05 0.05
0.09 0.09 0.08 0.06 0.05 0.05 0.04 0.03 0.02 0.01 0.01 0.02 0.02 0.03 0.05 0.04 0.05 0.07 0.08 0.09 0.09 0.09 0.10 0.11 0.11 0.11 0.10 0.09 0.09 0.08 0.06 0.05 0.04 0.03 0.02 0.03 0.03 0.04 0.04 0.05 0.05 0.04 0.04
0.11 0.10 0.08 0.06 0.04 0.04 0.04 0.04 0.04 0.02 0.03 0.01 0.01 0.02 0.02 0.02 0.03 0.04 0.05 0.06 0.06 0.06 0.06 0.07 0.08 0.09 0.10 0.09 0.09 0.07 0.07 0.06 0.06 0.05 0.03 0.02 0.03 0.04 0.04 0.03 0.04 0.04 0.03
0.13 0.13 0.10 0.07 0.05 0.04 0.03 0.03 0.03 0.02 0.02 0.02 0.02 0.01 0.02 0.02 0.02 0.03 0.04 0.04 0.05 0.05 0.05 0.05 0.05 0.06 0.07 0.07 0.07 0.06 0.06 0.06 0.05 0.05 0.05 0.04 0.03 0.02 0.03 0.03 0.03 0.03 0.04
0.15 0.11 0.09 0.06 0.05 0.03 0.02 0.03 0.03 0.02 0.02 0.03 0.02 0.01 0.01 0.02 0.03 0.03 0.02 0.02 0.02 0.03 0.03 0.03 0.04 0.05 0.06 0.06 0.05 0.05 0.05 0.05 0.05 0.05 0.04 0.04 0.04 0.04 0.03 0.03 0.03 0.04 0.04
MSLP
1012.17 1011.96 1011.98 1012.23 1012.62 1013.09 1013.52 1013.86 1014.06 1014.16 1014.20 1014.26 1014.41 1014.69 1015.10 1015.60 1016.14 1016.64 1017.04 1017.30 1017.45 1017.49 1017.50 1017.50 1017.56 1017.67 1017.84 1018.05 1018.25 1018.43 1018.56 1018.65 1018.71 1018.76 1018.81 1018.89 1018.99 1019.11 1019.23 1019.33 1019.42 1019.48 1019.54
1011.86 1011.78 1011.91 1012.23 1012.69 1013.19 1013.64 1013.99 1014.21 1014.32 1014.38 1014.48 1014.68 1015.01 1015.45 1015.98 1016.51 1016.99 1017.36 1017.59 1017.70 1017.73 1017.74 1017.77 1017.85 1018.00 1018.18 1018.38 1018.55 1018.68 1018.76 1018.80 1018.82 1018.85 1018.91 1019.02 1019.16 1019.32 1019.47 1019.59 1019.68 1019.73 1019.77
1011.51 1011.55 1011.79 1012.20 1012.73 1013.28 1013.78 1014.16 1014.42 1014.57 1014.68 1014.83 1015.07 1015.42 1015.86 1016.37 1016.86 1017.28 1017.58 1017.75 1017.83 1017.86 1017.88 1017.94 1018.06 1018.24 1018.45 1018.64 1018.78 1018.87 1018.90 1018.90 1018.90 1018.93 1019.02 1019.16 1019.34 1019.54 1019.72 1019.85 1019.93 1019.97 1020.00
1011.20 1011.36 1011.70 1012.20 1012.80 1013.41 1013.96 1014.40 1014.70 1014.91 1015.07 1015.25 1015.51 1015.85 1016.27 1016.72 1017.13 1017.47 1017.69 1017.81 1017.86 1017.88 1017.93 1018.04 1018.21 1018.42 1018.65 1018.84 1018.97 1019.02 1019.02 1019.00 1018.99 1019.04 1019.15 1019.33 1019.55 1019.78 1019.97 1020.10 1020.18 1020.20 1020.22
1011.02 1011.28 1011.71 1012.28 1012.95 1013.61 1014.21 1014.68 1015.03 1015.27 1015.47 1015.68 1015.93 1016.26 1016.63 1017.00 1017.33 1017.58 1017.73 1017.80 1017.84 1017.87 1017.96 1018.11 1018.33 1018.58 1018.83 1019.02 1019.13 1019.17 1019.15 1019.12 1019.12 1019.19 1019.34 1019.55 1019.80 1020.03 1020.22 1020.34 1020.40 1020.42 1020.42
1011.05 1011.38 1011.86 1012.49 1013.18 1013.88 1014.49 1014.99 1015.35 1015.62 1015.83 1016.04 1016.29 1016.58 1016.90 1017.20 1017.46 1017.65 1017.75 1017.80 1017.83 1017.89 1018.02 1018.22 1018.48 1018.76 1019.02 1019.20 1019.31 1019.34 1019.32 1019.29 1019.31 1019.40 1019.57 1019.80 1020.05 1020.28 1020.46 1020.56 1020.59 1020.60 1020.61
1011.31 1011.66 1012.16 1012.80 1013.50 1014.18 1014.78 1015.26 1015.61 1015.87 1016.08 1016.29 1016.53 1016.80 1017.08 1017.35 1017.57 1017.72 1017.80 1017.85 1017.90 1017.99 1018.16 1018.39 1018.68 1018.97 1019.22 1019.40 1019.50 1019.51 1019.49 1019.48 1019.51 1019.63 1019.81 1020.05 1020.29 1020.50 1020.64 1020.71 1020.73 1020.73 1020.74
1011.74 1012.09 1012.58 1013.19 1013.85 1014.48 1015.02 1015.46 1015.78 1016.01 1016.21 1016.42 1016.65 1016.92 1017.20 1017.46 1017.68 1017.83 1017.92 1017.99 1018.07 1018.19 1018.38 1018.63 1018.92 1019.20 1019.44 1019.59 1019.67 1019.67 1019.65 1019.64 1019.69 1019.81 1020.00 1020.22 1020.45 1020.62 1020.74 1020.78 1020.78 1020.78 1020.81
1012.28 1012.60 1013.05 1013.60 1014.19 1014.74 1015.20 1015.56 1015.83 1016.03 1016.22 1016.43 1016.68 1016.97 1017.28 1017.56 1017.80 1017.98 1018.11 1018.21 1018.31 1018.45 1018.65 1018.90 1019.16 1019.41 1019.61 1019.73 1019.78 1019.76 1019.73 1019.73 1019.77 1019.89 1020.07 1020.27 1020.47 1020.61 1020.70 1020.73 1020.72 1020.73 1020.79
1012.82 1013.10 1013.50 1013.98 1014.47 1014.92 1015.29 1015.58 1015.79 1015.96 1016.14 1016.37 1016.65 1016.98 1017.33 1017.66 1017.94 1018.16 1018.32 1018.44 1018.56 1018.71 1018.90 1019.12 1019.34 1019.55 1019.70 1019.79 1019.80 1019.76 1019.71 1019.69 1019.73 1019.83 1019.98 1020.16 1020.32 1020.44 1020.51 1020.54 1020.55 1020.59 1020.68
1013.29 1013.54 1013.88 1014.28 1014.68 1015.04 1015.32 1015.53 1015.69 1015.84 1016.03 1016.28 1016.60 1016.97 1017.37 1017.74 1018.06 1018.31 1018.49 1018.63 1018.75 1018.89 1019.05 1019.23 1019.42 1019.58 1019.69 1019.74 1019.71 1019.65 1019.58 1019.54 1019.55 1019.62 1019.74 1019.88 1020.01 1020.12 1020.19 1020.24 1020.28 1020.35 1020.48
1013.65 1013.88 1014.17 1014.51 1014.83 1015.10 1015.30 1015.46 1015.58 1015.73 1015.92 1016.20 1016.55 1016.96 1017.39 1017.79 1018.12 1018.38 1018.57 1018.70 1018.81 1018.93 1019.07 1019.22 1019.38 1019.50 1019.58 1019.60 1019.56 1019.47 1019.38 1019.30 1019.27 1019.30 1019.37 1019.48 1019.59 1019.69 1019.78 1019.85 1019.93 1020.05 1020.22
1013.90 1014.12 1014.38 1014.66 1014.92 1015.13 1015.28 1015.39 1015.50 1015.65 1015.86 1016.16 1016.53 1016.95 1017.38 1017.77 1018.10 1018.35 1018.52 1018.63 1018.73 1018.83 1018.94 1019.08 1019.22 1019.34 1019.41 1019.42 1019.37 1019.27 1019.15 1019.04 1018.96 1018.94 1018.97 1019.03 1019.13 1019.23 1019.33 1019.45 1019.58 1019.74 1019.94
1014.08 1014.29 1014.53 1014.77 1014.99 1015.15 1015.28 1015.37 1015.48 1015.63 1015.85 1016.15 1016.52 1016.93 1017.33 1017.69 1017.98 1018.19 1018.33 1018.43 1018.50 1018.60 1018.72 1018.86 1019.02 1019.15 1019.24 1019.26 1019.22 1019.11 1018.97 1018.83 1018.71 1018.63 1018.61 1018.64 1018.71 1018.82 1018.95 1019.10 1019.28 1019.48 1019.70
1014.24 1014.44 1014.66 1014.88 1015.06 1015.20 1015.31 1015.41 1015.52 1015.68 1015.90 1016.19 1016.53 1016.89 1017.24 1017.55 1017.78 1017.95 1018.05 1018.13 1018.20 1018.30 1018.45 1018.62 1018.81 1018.98 1019.11 1019.17 1019.14 1019.05 1018.90 1018.73 1018.57 1018.45 1018.38 1018.38 1018.44 1018.55 1018.71 1018.89 1019.10 1019.33 1019.56
1014.41 1014.60 1014.80 1014.99 1015.16 1015.29 1015.40 1015.51 1015.63 1015.79 1016.00 1016.26 1016.55 1016.85 1017.13 1017.36 1017.53 1017.65 1017.73 1017.80 1017.89 1018.02 1018.20 1018.42 1018.66 1018.89 1019.06 1019.16 1019.17 1019.09 1018.95 1018.77 1018.59 1018.44 1018.35 1018.33 1018.38 1018.50 1018.67 1018.87 1019.10 1019.33 1019.54
1014.60 1014.77 1014.95 1015.13 1015.28 1015.42 1015.54 1015.66 1015.79 1015.94 1016.13 1016.34 1016.57 1016.80 1017.00 1017.16 1017.28 1017.36 1017.43 1017.50 1017.62 1017.79 1018.02 1018.29 1018.58 1018.86 1019.08 1019.22 1019.27 1019.22 1019.10 1018.93 1018.75 1018.60 1018.51 1018.49 1018.54 1018.67 1018.85 1019.06 1019.28 1019.49 1019.66
1014.80 1014.96 1015.12 1015.28 1015.43 1015.58 1015.72 1015.85 1015.98 1016.13 1016.28 1016.45 1016.61 1016.76 1016.88 1016.98 1017.06 1017.12 1017.19 1017.29 1017.44 1017.65 1017.92 1018.23 1018.56 1018.87 1019.13 1019.31 1019.39 1019.38 1019.30 1019.17 1019.03 1018.91 1018.84 1018.84 1018.91 1019.05 1019.23 1019.43 1019.63 1019.80 1019.91
1014.98 1015.11 1015.26 1015.43 1015.59 1015.76 1015.92 1016.07 1016.21 1016.34 1016.46 1016.57 1016.66 1016.74 1016.79 1016.84 1016.89 1016.94 1017.03 1017.15 1017.33 1017.57 1017.86 1018.19 1018.54 1018.86 1019.14 1019.34 1019.47 1019.51 1019.49 1019.42 1019.35 1019.29 1019.28 1019.32 1019.43 1019.58 1019.76 1019.94 1020.10 1020.20 1020.24
1015.08 1015.21 1015.37 1015.55 1015.75 1015.95 1016.14 1016.31 1016.46 1016.57 1016.65 1016.70 1016.72 1016.73 1016.74 1016.74 1016.77 1016.83 1016.92 1017.07 1017.27 1017.53 1017.82 1018.14 1018.48 1018.79 1019.06 1019.29 1019.45 1019.55 1019.61 1019.63 1019.65 1019.69 1019.76 1019.86 1020.01 1020.18 1020.36 1020.51 1020.61 1020.65 1020.60
1015.07 1015.22 1015.41 1015.64 1015.88 1016.12 1016.36 1016.55 1016.71 1016.80 1016.84 1016.83 1016.79 1016.74 1016.69 1016.67 1016.68 1016.73 1016.84 1017.00 1017.21 1017.46 1017.74 1018.04 1018.33 1018.62 1018.89 1019.12 1019.32 1019.49 1019.63 1019.76 1019.90 1020.04 1020.21 1020.39 1020.59 1020.78 1020.95 1021.06 1021.11 1021.06 1020.92
1014.94 1015.14 1015.39 1015.67 1015.98 1016.28 1016.56 1016.79 1016.94 1017.02 1017.02 1016.96 1016.86 1016.74 1016.65 1016.59 1016.58 1016.63 1016.75 1016.91 1017.11 1017.34 1017.59 1017.85 1018.11 1018.37 1018.62 1018.87 1019.11 1019.35 1019.58 1019.82 1020.07 1020.33 1020.59 1020.84 1021.09 1021.30 1021.45 1021.53 1021.52 1021.40 1021.17
1014.72 1014.98 1015.30 1015.66 1016.04 1016.41 1016.74 1016.99 1017.15 1017.21 1017.17 1017.05 1016.89 1016.72 1016.58 1016.49 1016.46 1016.50 1016.60 1016.76 1016.95 1017.16 1017.39 1017.61 1017.84 1018.08 1018.33 1018.59 1018.87 1019.17 1019.49 1019.83 1020.17 1020.52 1020.86 1021.17 1021.45 1021.67 1021.82 1021.87 1021.80 1021.62 1021.32
1014.45 1014.77 1015.16 1015.60 1016.06 1016.49 1016.86 1017.14 1017.31 1017.34 1017.27 1017.10 1016.89 1016.67 1016.48 1016.35 1016.30 1016.33 1016.42 1016.57 1016.75 1016.95 1017.15 1017.36 1017.58 1017.81 1018.07 1018.35 1018.67 1019.03 1019.41 1019.81 1020.22 1020.63 1021.01 1021.36 1021.66 1021.88 1022.02 1022.05 1021.95 1021.73 1021.39
1014.20 1014.58 1015.03 1015.54 1016.06 1016.54 1016.95 1017.25 1017.41 1017.43 1017.33 1017.12 1016.86 1016.60 1016.37 1016.21 1016.14 1016.15 1016.23 1016.38 1016.55 1016.75 1016.96 1017.17 1017.39 1017.64 1017.91 1018.22 1018.57 1018.96 1019.37 1019.80 1020.24 1020.66 1021.05 1021.41 1021.70 1021.93 1022.06 1022.08 1021.99 1021.76 1021.41
1014.05 1014.46 1014.96 1015.51 1016.06 1016.58 1017.01 1017.32 1017.48 1017.49 1017.36 1017.12 1016.83 1016.54 1016.28 1016.10 1016.01 1016.01 1016.09 1016.23 1016.42 1016.63 1016.85 1017.08 1017.33 1017.60 1017.90 1018.23 1018.60 1018.99 1019.40 1019.82 1020.23 1020.62 1020.99 1021.32 1021.60 1021.82 1021.96 1022.01 1021.94 1021.75 1021.43
Thickness
5787 5787 5784 5781 5779 5778 5777 5776 5775 5773 5772 5770 5768 5766 5764 5763 5761 5759 5757 5756 5755 5753 5752 5751 5750 5749 5747 5746 5744 5743 5742 5740 5739 5737 5736 5734 5732 5731 5730 5728 5727 5726 5725
5792 5787 5783 5780 5777 5776 5774 5773 5771 5770 5768 5767 5765 5763 5762 5760 5758 5756 5755 5754 5752 5751 5750 5749 5748 5747 5745 5744 5742 5741 5739 5738 5737 5735 5734 5732 5730 5729 5728 5727 5725 5724 5723
5791 5786 5782 5778 5775 5773 5771 5769 5767 5766 5764 5763 5762 5760 5759 5757 5755 5754 5752 5751 5750 5749 5747 5746 5745 5744 5743 5741 5740 5739 5737 5736 5735 5733 5732 5730 5728 5727 5727 5725 5724 5723 5721
5788 5784 5780 5776 5773 5770 5768 5765 5764 5762 5760 5759 5758 5757 5755 5754 5752 5751 5750 5749 5747 5746 5745 5744 5743 5741 5740 5739 5738 5737 5735 5734 5733 5731 5730 5728 5727 5726 5725 5723 5722 5721 5720
5784 5780 5777 5774 5770 5767 5765 5762 5760 5759 5757 5755 5754 5753 5752 5750 5749 5748 5747 5746 5745 5744 5743 5741 5740 5739 5737 5736 5735 5734 5733 5732 5731 5730 5728 5727 5726 5724 5723 5722 5720 5719 5718
5779 5776 5773 5770 5767 5764 5761 5759 5757 5755 5753 5752 5751 5749 5748 5747 5745 5744 5743 5742 5741 5741 5740 5738 5737 5736 5735 5734 5733 5732 5731 5730 5729 5728 5726 5725 5724 5722 5721 5720 5718 5717 5716
5775 5772 5769 5766 5763 5761 5758 5756 5754 5752 5750 5749 5747 5746 5744 5743 5742 5741 5740 5739 5738 5737 5737 5735 5734 5733 5732 5731 5730 5730 5729 5729 5728 5726 5725 5723 5722 5721 5719 5718 5717 5716 5714
5771 5768 5766 5763 5760 5757 5755 5753 5751 5749 5747 5745 5743 5742 5740 5739 5738 5737 5736 5735 5734 5733 5733 5732 5731 5730 5729 5729 5728 5727 5727 5726 5726 5725 5723 5722 5721 5719 5718 5717 5716 5714 5713
5766 5764 5761 5759 5757 5754 5752 5750 5748 5746 5744 5741 5739 5737 5736 5735 5734 5733 5732 5731 5730 5729 5729 5728 5727 5727 5726 5726 5726 5725 5725 5725 5724 5723 5722 5721 5720 5718 5717 5715 5715 5713 5712
5760 5759 5757 5754 5752 5750 5748 5746 5744 5742 5740 5738 5736 5734 5733 5731 5730 5729 5728 5727 5726 5725 5725 5725 5724 5723 5723 5723 5723 5723 5722 5722 5721 5721 5720 5719 5718 5717 5716 5714 5713 5712 5711
5754 5753 5751 5749 5748 5746 5744 5741 5739 5737 5736 5734 5732 5730 5729 5727 5726 5725 5724 5724 5723 5722 5721 5721 5720 5720 5720 5720 5720 5720 5720 5719 5719 5718 5718 5718 5717 5716 5715 5713 5712 5711 5709
5746 5747 5746 5745 5743 5741 5739 5737 5735 5733 5732 5730 5729 5727 5725 5722 5721 5720 5720 5720 5719 5719 5718 5717 5717 5717 5717 5716 5716 5717 5717 5717 5716 5716 5716 5716 5716 5715 5714 5712 5711 5710 5708
5742 5742 5741 5740 5738 5736 5735 5733 5731 5729 5727 5726 5724 5723 5721 5718 5717 5716 5716 5716 5716 5715 5715 5714 5714 5713 5713 5713 5713 5713 5714 5714 5714 5714 5714 5715 5715 5714 5713 5711 5710 5709 5708
5736 5736 5736 5735 5733 5731 5729 5728 5725 5724 5722 5720 5719 5718 5716 5714 5713 5712 5711 5711 5711 5711 5710 5710 5710 5710 5710 5710 5710 5710 5710 5711 5711 5712 5713 5713 5713 5712 5711 5711 5709 5708 5707
5731 5730 5730 5729 5727 5726 5724 5722 5720 5718 5716 5715 5714 5712 5712 5710 5709 5708 5707 5707 5707 5707 5706 5706 5705 5706 5706 5706 5707 5707 5707 5708 5708 5709 5710 5711 5711 5710 5710 5709 5708 5706 5705
5726 5726 5725 5724 5722 5720 5719 5716 5715 5713 5711 5710 5709 5707 5706 5705 5704 5703 5702 5702 5702 5702 5702 5701 5701 5701 5701 5701 5702 5703 5703 5704 5704 5706 5707 5708 5708 5708 5707 5707 5706 5705 5704
5722 5722 5721 5720 5717 5715 5713 5711 5709 5708 5706 5705 5703 5702 5701 5700 5699 5698 5698 5697 5696 5696 5696 5696 5696 5695 5696 5696 5696 5698 5699 5700 5700 5702 5703 5704 5704 5705 5704 5704 5703 5702 5702
5717 5717 5716 5716 5712 5709 5708 5706 5704 5702 5701 5699 5698 5697 5695 5695 5694 5693 5692 5691 5691 5691 5690 5691 5690 5689 5690 5689 5690 5692 5694 5695 5696 5697 5698 5699 5700 5700 5700 5701 5700 5700 5699
5712 5711 5709 5708 5706 5704 5702 5700 5698 5697 5694 5693 5692 5691 5690 5689 5688 5687 5685 5685 5685 5685 5685 5685 5684 5684 5683 5684 5685 5687 5688 5690 5691 5693 5694 5694 5695 5695 5696 5697 5696 5696 5696
5707 5705 5703 5702 5699 5697 5695 5693 5691 5689 5687 5686 5685 5684 5683 5682 5681 5680 5679 5679 5679 5679 5678 5678 5678 5678 5678 5679 5680 5682 5683 5685 5686 5687 5688 5689 5689 5689 5690 5691 5691 5692 5692
5700 5698 5696 5694 5692 5691 5689 5686 5684 5681 5680 5679 5678 5677 5676 5675 5674 5673 5673 5673 5672 5672 5672 5672 5672 5672 5672 5672 5672 5674 5677 5679 5680 5681 5682 5683 5683 5683 5685 5685 5686 5686 5687
5693 5690 5687 5687 5686 5684 5682 5680 5678 5675 5673 5671 5670 5668 5667 5667 5666 5666 5665 5665 5665 5665 5665 5665 5665 5665 5665 5666 5666 5665 5666 5670 5673 5675 5676 5677 5677 5678 5679 5679 5680 5681 5681
5686 5684 5683 5680 5679 5678 5675 5674 5672 5669 5666 5663 5662 5660 5659 5658 5658 5657 5657 5656 5656 5657 5657 5658 5659 5659 5658 5659 5660 5660 5659 5660 5663 5667 5669 5670 5670 5671 5672 5673 5673 5675 5676
5679 5679 5676 5675 5673 5671 5668 5666 5664 5660 5657 5654 5652 5651 5650 5650 5649 5648 5648 5648 5648 5649 5650 5651 5652 5653 5653 5653 5654 5655 5656 5658 5657 5658 5661 5662 5664 5664 5665 5666 5667 5668 5670
5673 5672 5670 5668 5666 5663 5661 5659 5656 5653 5649 5646 5645 5644 5642 5642 5641 5641 5640 5640 5640 5641 5642 5643 5644 5646 5647 5647 5647 5648 5650 5651 5653 5652 5652 5654 5656 5657 5658 5660 5661 5662 5664
5666 5665 5663 5661 5658 5656 5654 5651 5649 5646 5642 5639 5637 5636 5634 5633 5633 5633 5632 5631 5632 5633 5634 5636 5637 5639 5640 5641 5641 5642 5643 5644 5645 5646 5647 5647 5648 5649 5651 5653 5655 5656 5657